Wetterdaten: aktuell Montag, 21.05.2018 12:35
Datum Zeit Temp. A. Feuchte A. Luftdruck Regen Wind Richtung Richtung Taupunkt Windben
21.05.2018 12:35 21,2 C 43 % 1016,7 hPa 0,0 l/m 6,1 km/h N-NO 22 8,1 C 14,6 km/h
21.05.2018 12:30 21,2 C 42 % 1016,7 hPa 0,0 l/m 7,4 km/h NO 45 7,8 C 6,1 km/h
21.05.2018 12:25 20,9 C 43 % 1016,7 hPa 0,0 l/m 8,5 km/h O-SO 112 7,8 C 17,4 km/h
21.05.2018 12:20 20,8 C 41 % 1017,4 hPa 0,0 l/m 8,0 km/h S-SO 157 7,1 C 13,0 km/h
21.05.2018 12:15 20,9 C 42 % 1017,4 hPa 0,0 l/m 5,8 km/h O-NO 67 7,5 C 11,9 km/h
21.05.2018 12:10 20,8 C 43 % 1017,4 hPa 0,0 l/m 5,8 km/h S-SO 157 7,8 C 12,1 km/h
21.05.2018 12:05 20,8 C 45 % 1017,4 hPa 0,0 l/m 5,3 km/h N-NO 22 8,4 C 2,6 km/h
21.05.2018 12:00 20,7 C 45 % 1017,6 hPa 0,0 l/m 5,6 km/h S-SW 202 8,3 C 4,3 km/h
21.05.2018 11:55 20,4 C 45 % 1017,6 hPa 0,0 l/m 6,3 km/h W 270 8,1 C 3,4 km/h
21.05.2018 11:50 20,3 C 44 % 1017,6 hPa 0,0 l/m 7,6 km/h N-NO 22 7,6 C 9,5 km/h
21.05.2018 11:45 20,1 C 43 % 1017,6 hPa 0,0 l/m 7,9 km/h O 90 7,1 C 17,7 km/h
21.05.2018 11:40 20,0 C 43 % 1017,6 hPa 0,0 l/m 7,1 km/h SW 225 7,0 C 9,5 km/h
21.05.2018 11:35 20,1 C 46 % 1017,6 hPa 0,0 l/m 6,8 km/h O-NO 67 8,1 C 16,6 km/h
21.05.2018 11:30 19,9 C 45 % 1017,6 hPa 0,0 l/m 7,2 km/h N-NO 22 7,6 C 10,1 km/h
21.05.2018 11:25 19,9 C 45 % 1017,6 hPa 0,0 l/m 7,4 km/h S 180 7,6 C 13,8 km/h
21.05.2018 11:20 19,9 C 46 % 1017,9 hPa 0,0 l/m 6,6 km/h S-SO 157 7,9 C 10,1 km/h
21.05.2018 11:15 19,7 C 45 % 1017,9 hPa 0,0 l/m 6,3 km/h S-SW 202 7,4 C 7,2 km/h
21.05.2018 11:10 19,6 C 47 % 1017,9 hPa 0,0 l/m 6,3 km/h SW 225 8,0 C 4,5 km/h
21.05.2018 11:05 19,3 C 46 % 1017,9 hPa 0,0 l/m 7,4 km/h S-SW 202 7,4 C 12,7 km/h
21.05.2018 11:00 19,2 C 47 % 1017,9 hPa 0,0 l/m 6,4 km/h N 360 7,6 C 8,0 km/h
21.05.2018 10:55 19,1 C 46 % 1017,9 hPa 0,0 l/m 6,0 km/h S 180 7,2 C 8,5 km/h
21.05.2018 10:50 19,0 C 48 % 1017,9 hPa 0,0 l/m 6,3 km/h N 360 7,7 C 7,7 km/h
21.05.2018 10:45 18,8 C 48 % 1017,9 hPa 0,0 l/m 6,6 km/h O-SO 112 7,6 C 10,3 km/h
21.05.2018 10:40 18,6 C 47 % 1018,1 hPa 0,0 l/m 7,1 km/h O 90 7,1 C 12,6 km/h
21.05.2018 10:35 18,6 C 49 % 1018,1 hPa 0,0 l/m 6,1 km/h S-SO 157 7,7 C 9,5 km/h
21.05.2018 10:30 18,5 C 49 % 1018,1 hPa 0,0 l/m 6,3 km/h O-SO 112 7,6 C 24,5 km/h
21.05.2018 10:25 18,4 C 50 % 1018,1 hPa 0,0 l/m 7,2 km/h S-SO 157 7,8 C 8,7 km/h
21.05.2018 10:20 18,3 C 52 % 1018,4 hPa 0,0 l/m 5,3 km/h S-SW 202 8,3 C 12,6 km/h
21.05.2018 10:15 18,1 C 54 % 1018,4 hPa 0,0 l/m 4,7 km/h S 180 8,6 C 11,4 km/h
21.05.2018 10:10 17,9 C 53 % 1018,4 hPa 0,0 l/m 4,7 km/h O-NO 67 8,2 C 7,2 km/h
21.05.2018 10:05 17,7 C 52 % 1018,4 hPa 0,0 l/m 5,0 km/h N-NW 337 7,7 C 10,8 km/h
21.05.2018 10:00 17,5 C 53 % 1018,3 hPa 0,0 l/m 4,2 km/h O-SO 112 7,8 C 3,4 km/h
21.05.2018 09:55 17,3 C 55 % 1018,3 hPa 0,0 l/m 4,7 km/h SW 225 8,2 C 3,1 km/h
21.05.2018 09:50 17,1 C 55 % 1018,3 hPa 0,0 l/m 5,3 km/h S-SW 202 8,0 C 3,4 km/h
21.05.2018 09:45 16,9 C 55 % 1018,3 hPa 0,0 l/m 5,3 km/h O-SO 112 7,8 C 5,6 km/h
21.05.2018 09:40 16,7 C 56 % 1018,5 hPa 0,0 l/m 5,3 km/h S-SO 157 7,9 C 3,9 km/h
21.05.2018 09:35 16,5 C 56 % 1018,5 hPa 0,0 l/m 4,5 km/h S 180 7,7 C 13,8 km/h
21.05.2018 09:30 16,3 C 57 % 1018,5 hPa 0,0 l/m 4,7 km/h S-SO 157 7,8 C 4,7 km/h
21.05.2018 09:25 16,0 C 57 % 1018,5 hPa 0,0 l/m 5,6 km/h S-SO 157 7,5 C 1,8 km/h
21.05.2018 09:20 15,9 C 59 % 1018,6 hPa 0,0 l/m 5,0 km/h O-NO 67 7,9 C 15,1 km/h
21.05.2018 09:15 15,5 C 59 % 1018,6 hPa 0,0 l/m 5,0 km/h O-NO 67 7,5 C 5,0 km/h
21.05.2018 09:10 15,3 C 59 % 1018,6 hPa 0,0 l/m 4,5 km/h SW 225 7,3 C 9,3 km/h
21.05.2018 09:05 15,0 C 59 % 1018,6 hPa 0,0 l/m 4,7 km/h S-SO 157 7,1 C 9,7 km/h
21.05.2018 09:00 14,8 C 60 % 1018,8 hPa 0,0 l/m 5,6 km/h W-SW 247 7,1 C 4,8 km/h
21.05.2018 08:55 14,5 C 61 % 1018,8 hPa 0,0 l/m 5,6 km/h SO 135 7,1 C 5,1 km/h
21.05.2018 08:50 14,4 C 61 % 1018,8 hPa 0,0 l/m 6,0 km/h O-NO 67 7,0 C 15,0 km/h
21.05.2018 08:45 14,1 C 62 % 1018,8 hPa 0,0 l/m 7,2 km/h O-NO 67 6,9 C 4,0 km/h
21.05.2018 08:40 14,0 C 62 % 1018,6 hPa 0,0 l/m 6,8 km/h N 360 6,8 C 14,8 km/h
21.05.2018 08:35 13,7 C 64 % 1018,6 hPa 0,0 l/m 4,8 km/h O 90 7,0 C 7,2 km/h
21.05.2018 08:30 13,6 C 65 % 1018,6 hPa 0,0 l/m 4,2 km/h NO 45 7,1 C 7,1 km/h
21.05.2018 08:27 13,4 C 65 % 1018,6 hPa 0,0 l/m 4,0 km/h O-NO 67 7,0 C 3,9 km/h
21.05.2018 08:23 13,4 C 65 % 1018,6 hPa 0,0 l/m 4,0 km/h O-NO 67 7,0 C 3,9 km/h
21.05.2018 08:20 13,3 C 66 % 1018,6 hPa 0,0 l/m 4,2 km/h O-SO 112 7,1 C 7,4 km/h
21.05.2018 08:15 13,0 C 67 % 1018,6 hPa 0,0 l/m 4,2 km/h O-SO 112 7,0 C 4,3 km/h
21.05.2018 08:10 12,9 C 68 % 1018,6 hPa 0,0 l/m 4,0 km/h NO 45 7,1 C 4,0 km/h
21.05.2018 08:05 12,8 C 68 % 1018,6 hPa 0,0 l/m 4,2 km/h W-NW 292 7,0 C 3,7 km/h
21.05.2018 08:00 12,7 C 68 % 1018,8 hPa 0,0 l/m 4,0 km/h O-NO 67 6,9 C 5,0 km/h
21.05.2018 07:55 12,5 C 69 % 1018,8 hPa 0,0 l/m 4,7 km/h N 360 7,0 C 6,3 km/h
21.05.2018 07:50 12,5 C 68 % 1018,8 hPa 0,0 l/m 5,1 km/h S-SW 202 6,8 C 6,1 km/h
21.05.2018 07:45 12,3 C 69 % 1018,8 hPa 0,0 l/m 4,5 km/h O-SO 112 6,8 C 7,6 km/h
21.05.2018 07:40 12,3 C 69 % 1018,9 hPa 0,0 l/m 4,7 km/h O-SO 112 6,8 C 7,7 km/h
21.05.2018 07:35 12,0 C 69 % 1018,9 hPa 0,0 l/m 4,2 km/h S-SO 157 6,5 C 2,7 km/h
21.05.2018 07:30 12,0 C 69 % 1018,9 hPa 0,0 l/m 3,9 km/h S-SO 157 6,5 C 3,4 km/h
21.05.2018 07:25 11,8 C 71 % 1018,9 hPa 0,0 l/m 4,2 km/h N 360 6,7 C 4,3 km/h
21.05.2018 07:20 11,7 C 71 % 1019,0 hPa 0,0 l/m 4,7 km/h SW 225 6,6 C 5,8 km/h
21.05.2018 07:15 11,5 C 72 % 1019,0 hPa 0,0 l/m 5,0 km/h SW 225 6,6 C 5,0 km/h
21.05.2018 07:10 11,4 C 72 % 1019,0 hPa 0,0 l/m 4,2 km/h NO 45 6,5 C 14,2 km/h
21.05.2018 07:05 11,3 C 73 % 1019,0 hPa 0,0 l/m 3,4 km/h SO 135 6,6 C 6,4 km/h
21.05.2018 07:00 11,1 C 73 % 1019,1 hPa 0,0 l/m 3,2 km/h O 90 6,4 C 5,5 km/h
21.05.2018 06:55 11,0 C 73 % 1019,1 hPa 0,0 l/m 3,7 km/h N-NO 22 6,4 C 3,1 km/h
21.05.2018 06:50 11,0 C 73 % 1019,1 hPa 0,0 l/m 3,7 km/h O-SO 112 6,4 C 1,6 km/h
21.05.2018 06:45 10,8 C 74 % 1019,1 hPa 0,0 l/m 3,1 km/h SW 225 6,4 C 5,8 km/h
21.05.2018 06:40 10,6 C 74 % 1019,0 hPa 0,0 l/m 2,7 km/h N-NW 337 6,2 C 4,3 km/h
21.05.2018 06:35 10,6 C 73 % 1019,0 hPa 0,0 l/m 2,4 km/h NW 315 6,0 C 3,9 km/h
21.05.2018 06:30 10,6 C 73 % 1019,0 hPa 0,0 l/m 1,9 km/h S-SW 202 6,0 C 1,8 km/h
21.05.2018 06:25 10,7 C 73 % 1019,0 hPa 0,0 l/m 2,6 km/h O 90 6,1 C 2,4 km/h
21.05.2018 06:20 10,8 C 72 % 1019,1 hPa 0,0 l/m 2,7 km/h O-SO 112 6,0 C 1,9 km/h
21.05.2018 06:15 10,8 C 72 % 1019,1 hPa 0,0 l/m 2,3 km/h N 360 6,0 C 2,6 km/h
21.05.2018 06:10 11,1 C 71 % 1019,1 hPa 0,0 l/m 3,4 km/h O-NO 67 6,0 C 4,2 km/h
21.05.2018 06:05 11,1 C 71 % 1019,1 hPa 0,0 l/m 3,4 km/h O-NO 67 6,0 C 4,2 km/h
21.05.2018 06:00 11,0 C 71 % 1019,2 hPa 0,0 l/m 3,4 km/h N-NO 22 5,9 C 3,7 km/h
21.05.2018 05:55 11,1 C 72 % 1019,2 hPa 0,0 l/m 3,5 km/h O-NO 67 6,2 C 2,3 km/h
21.05.2018 05:50 11,2 C 71 % 1019,2 hPa 0,0 l/m 3,9 km/h SW 225 6,1 C 2,4 km/h
21.05.2018 05:45 11,2 C 71 % 1019,2 hPa 0,0 l/m 3,1 km/h O-SO 112 6,1 C 5,3 km/h
21.05.2018 05:40 11,2 C 71 % 1019,1 hPa 0,0 l/m 2,7 km/h O 90 6,1 C 5,1 km/h
21.05.2018 05:35 11,3 C 71 % 1019,1 hPa 0,0 l/m 3,1 km/h SW 225 6,2 C 2,9 km/h
21.05.2018 05:30 11,3 C 71 % 1019,1 hPa 0,0 l/m 3,2 km/h N 360 6,2 C 5,1 km/h
21.05.2018 05:25 11,4 C 72 % 1019,1 hPa 0,0 l/m 3,2 km/h O-NO 67 6,5 C 5,8 km/h
21.05.2018 05:20 11,5 C 71 % 1019,1 hPa 0,0 l/m 3,7 km/h O-NO 67 6,4 C 3,7 km/h
21.05.2018 05:15 11,6 C 71 % 1019,1 hPa 0,0 l/m 4,2 km/h W-NW 292 6,5 C 0,0 km/h
21.05.2018 05:10 11,5 C 72 % 1019,1 hPa 0,0 l/m 4,2 km/h O-NO 67 6,6 C 13,4 km/h
21.05.2018 05:05 11,6 C 71 % 1019,1 hPa 0,0 l/m 4,2 km/h N-NO 22 6,5 C 5,5 km/h
21.05.2018 05:00 11,6 C 71 % 1019,2 hPa 0,0 l/m 3,9 km/h W 270 6,5 C 5,5 km/h
21.05.2018 04:55 11,5 C 71 % 1019,2 hPa 0,0 l/m 3,9 km/h S-SO 157 6,4 C 8,4 km/h
21.05.2018 04:50 11,6 C 71 % 1019,2 hPa 0,0 l/m 3,5 km/h W-NW 292 6,5 C 3,9 km/h
21.05.2018 04:45 11,5 C 71 % 1019,2 hPa 0,0 l/m 2,7 km/h W 270 6,4 C 0,0 km/h
21.05.2018 04:40 11,5 C 71 % 1019,3 hPa 0,0 l/m 2,9 km/h S-SO 157 6,4 C 1,9 km/h
21.05.2018 04:35 11,5 C 71 % 1019,3 hPa 0,0 l/m 2,4 km/h S-SO 157 6,4 C 1,8 km/h
21.05.2018 04:30 11,7 C 71 % 1019,3 hPa 0,0 l/m 3,1 km/h W 270 6,6 C 4,0 km/h
21.05.2018 04:25 11,7 C 72 % 1019,3 hPa 0,0 l/m 3,1 km/h W-SW 247 6,8 C 2,9 km/h
_ Min-Zeit 00:10 19:10 12:25 - 23:25 - - 19:10 20:20
Minimum _ 10,3 C 26 % 1016,7 hPa - 0,2 km/h - - 0,3 C 0,0 km/h
_ Max-Zeit 17:00 06:40 13:00 13:00 16:15 - - 10:15 10:30
Maximum _ 22,2 C 74 % 1022,4 hPa 0,0 l/m 9,0 km/h
SO
- - 8,6 C 24,5 km/h
O-SO
Durchschnitt _ 16,3 C 51 % 1020,1 hPa #0,0 l/m 4,6 km/h O-NO - 5,4 C 6,2 km/h